Simultaneous Nadir Overpasses (SNOs) Predictions

Prediction of SNOs over PacNW region [( 10.00, 139.50) to ( 22.70, 165.60)] between NOAA-19 and NPP Satellites:

Table of predicted SNOs over PacNW region for the next 30.0 days since TLE Epoch: 7/31/2012
Index Date (NOAA-19) Time (NOAA-19) NOAA-19 Lat,Lon Date (NPP) Time (NPP) NPP Lat,Lon Distance(km) Time Diff (sec)
1 08/09/2012 02:30:51 16.32, 162.93 08/09/2012 02:32:40 15.69, 160.17 302.82 109
2 08/09/2012 15:07:54 13.78, 158.45 08/09/2012 15:05:22 14.17, 156.66 198.23 152
3 08/21/2012 03:43:37 10.68, 145.68 08/21/2012 03:47:03 9.94, 142.48 359.93 206
4 08/21/2012 14:40:14 13.49, 165.34 08/21/2012 14:39:56 13.98, 162.97 262.10 18
5 08/21/2012 16:20:34 19.63, 141.30 08/21/2012 16:19:42 20.08, 139.05 240.67 52
6 08/22/2012 03:36:14 22.65, 145.50 08/22/2012 03:32:37 26.14, 143.33 445.65 217
